Regional Weather Roundup
Issued by NWS

Home | Current Version | Previous Version | Text Only | Print | Product List | Glossary Off
Versions: 1 2 3 4 5 6 7 8 9 10 11 12 13 14 15 16 17 18 19 20 21 22 23 24 25 26 27 28 29 30 31 32 33 34 35 36 37 38 39 40 41 42 43 44 45 46 47 48 49 50

000
ASUS43 KIND 220859
RWRIN

WEATHER ROUNDUP FOR INDIANA
NATIONAL WEATHER SERVICE INDIANAPOLIS IN
500 AM EDT TUE JUL 22 2014

NOTE: "FAIR" INDICATES FEW OR NO CLOUDS BELOW 12,000 FEET WITH NO
SIGNIFICANT WEATHER AND/OR OBSTRUCTIONS TO VISIBILITY.

* - STATION DOES NOT REPORT WEATHER SUCH AS PRECIPITATION OR FOG.

+ - STATION NOT QUALITY CONTROLLED BY THE NATIONAL WEATHER SERVICE.
    USE DATA WITH CAUTION...ESPECIALLY DEWPOINT AND RELATIVE
    HUMIDITY OBSERVATIONS.

INZ001>003-010>013-019-020-221000-
NORTHWEST INDIANA

CITY           SKY/WX    TMP DP  RH WIND       PRES   REMARKS
GARY /AIRPORT/ CLEAR     68  65  90 CALM      30.07S
MONTICELLO +   FOG       61  61  99 CALM      30.08S VSB 1/2
RENSSELAER +   CLEAR     61  61 100 CALM      30.09S FOG
VALPARAISO     CLEAR     66  63  90 CALM      30.09S

$$

LMZ046-743>745-221000-
SOUTHERN LAKE MICHIGAN

STATION/POSITION TIME  TEMP WIND        PRES
                       AIR  DIR/SP/G
                 (UTC) (F)  (DEG/KT/KT) (MB)
BURNS HARBOR     0800   69  200/  7/  8 1019.0R
MICHIGAN CITY    0800   72  150/ 10/ 11   N/A

$$

INZ004-005-014>016-021>024-221000-
NORTH CENTRAL INDIANA

CITY           SKY/WX    TMP DP  RH WIND       PRES   REMARKS
GOSHEN         CLEAR     65  62  90 CALM      30.10R
SOUTH BEND     CLEAR     67  61  81 CALM      30.09S

$$

INZ006>009-017-018-025>027-221000-
NORTHEAST INDIANA

CITY           SKY/WX    TMP DP  RH WIND       PRES   REMARKS
ANGOLA *+      CLEAR     63  63 100 CALM      30.11S
FORT WAYNE     CLEAR     64  61  90 CALM      30.11R

$$

INZ028-029-035-036-043>045-051>053-221000-
WEST CENTRAL INDIANA

CITY           SKY/WX    TMP DP  RH WIND       PRES   REMARKS
GREENCASTLE +  CLEAR     63  63 100 CALM      30.10S FOG
LAFAYETTE      FOG       64  64 100 CALM      30.09R VSB 1/4
TERRE HAUTE    CLEAR     64  62  93 CALM      30.10R FOG

$$

INZ030>032-037>040-046>048-054>057-064-065-221000-
CENTRAL INDIANA

CITY           SKY/WX    TMP DP  RH WIND       PRES   REMARKS
INDIANAPOLIS   CLEAR     70  62  76 CALM      30.09S
-EAGLE CREEK   CLEAR     66  63  90 CALM      30.10R FOG
KOKOMO *+      CLEAR     63  61  94 CALM      30.10F
MT COMFORT *+  CLEAR     61 N/A N/A CALM      30.10S
SHELBYVILLE    CLEAR     64  61  90 CALM      30.09S FOG
ZIONSVILLE +   CLEAR     63  60  90 CALM      30.11S FOG

$$

INZ033-034-041-042-049-050-058-059-221000-
EAST CENTRAL INDIANA

CITY           SKY/WX    TMP DP  RH WIND       PRES   REMARKS
MUNCIE         CLEAR     64  60  87 CALM      30.10S

$$

INZ060-061-067>069-081>083-085>088-221000-
SOUTHWEST INDIANA

CITY           SKY/WX    TMP DP  RH WIND       PRES   REMARKS
EVANSVILLE     CLEAR     69  66  90 CALM      30.08R FOG
HUNTINGBURG *+   N/A     66  63  88 CALM      30.09R VSB 3/4

$$

INZ062-063-066-070>080-084-089>092-221000-
SOUTH CENTRAL AND SOUTHEAST INDIANA

CITY           SKY/WX    TMP DP  RH WIND       PRES   REMARKS
BLOOMINGTON    CLEAR     62  60  93 CALM      30.10R FOG

$$




USA.gov is the U.S. government's official web portal to all federal, state and local government web resources and services.